Wind_Speed
21 21 22 22 22 22 23 22 21 20 20 19 19 19 18 18 17 17 17 17 16 16 16 16 15 15 14 14 14 14 13 13 14 14 14 14 14 15 15 15 16 16 16 17
21 21 22 23 22 23 23 22 22 22 22 21 20 20 19 18 18 18 17 17 16 16 16 16 16 15 15 14 13 13 13 13 13 13 14 15 14 15 15 15 16 16 16 16
23 23 23 24 23 23 23 23 23 23 21 21 20 20 20 19 19 18 17 16 16 16 16 16 15 15 14 13 12 12 13 13 13 13 14 15 15 15 15 15 15 16 17 16
25 24 25 24 24 24 24 24 23 23 22 22 21 21 21 20 19 18 18 17 17 17 17 16 16 15 14 13 13 14 14 13 13 14 14 15 15 15 15 15 15 16 17 17
26 26 27 26 25 24 23 23 23 23 22 23 22 21 22 21 20 19 19 18 18 17 17 16 16 15 15 15 15 15 15 15 15 14 15 15 14 15 16 16 16 16 16 17
27 27 27 26 26 26 25 24 23 23 23 23 23 23 23 23 22 20 20 20 19 18 18 18 17 17 17 16 16 16 16 16 16 16 15 15 15 15 15 16 16 16 16 17
27 27 27 26 26 26 26 24 24 24 24 23 24 24 24 24 23 23 22 22 20 19 19 20 19 19 19 19 18 17 16 17 17 16 16 15 15 15 15 15 15 16 16 16
27 27 26 25 25 25 25 24 24 24 24 25 25 25 24 25 25 25 24 24 23 22 21 21 21 21 20 21 19 18 17 17 16 17 17 16 16 16 15 15 15 15 15 15
27 27 26 25 24 25 25 24 24 25 26 26 26 26 26 26 26 25 25 25 24 23 23 23 23 22 22 22 22 19 17 17 16 17 16 16 17 16 15 15 15 15 15 15
28 28 28 27 26 26 26 26 26 26 27 27 26 26 26 26 26 26 26 25 25 24 24 24 24 24 24 23 22 21 19 18 18 18 17 17 17 16 16 15 15 15 15 15
29 29 28 28 27 27 27 27 27 27 27 27 27 26 26 27 27 27 26 26 25 25 25 25 25 25 25 24 23 22 20 19 19 19 17 17 17 16 16 15 16 16 15 15
28 28 28 27 27 27 27 27 27 27 26 26 25 25 24 24 24 25 25 24 24 24 24 24 24 25 25 25 24 22 21 20 19 19 18 17 17 17 17 16 16 16 16 16
28 28 28 27 27 27 26 26 27 27 27 26 26 25 24 24 24 24 24 24 24 24 25 24 24 24 25 25 23 22 22 20 19 18 18 18 18 17 17 17 16 16 16 16
28 27 27 27 27 27 27 26 26 27 27 26 26 25 24 24 24 24 24 24 24 24 25 24 24 24 23 23 22 22 21 20 20 20 19 18 18 18 18 17 17 16 16 16
27 27 27 27 27 27 26 26 26 26 26 25 26 25 25 24 24 24 24 24 23 24 24 24 24 23 21 20 20 20 20 20 20 20 20 19 19 19 19 18 17 17 16 16
27 27 27 27 27 27 26 26 26 26 26 25 25 25 25 26 25 25 25 24 24 23 23 23 23 22 20 20 20 20 20 20 20 21 21 20 20 19 19 19 18 17 17 16
27 27 27 27 27 27 27 27 27 26 26 26 26 26 26 25 25 24 24 24 24 23 22 22 22 22 22 22 22 21 22 22 21 21 21 21 20 20 20 20 19 19 18 17
27 27 26 26 26 27 28 28 27 27 26 26 26 26 26 26 25 25 24 24 23 23 22 23 22 22 22 23 23 23 23 22 21 21 20 20 20 21 20 20 19 19 19 18
27 26 26 27 28 28 28 28 28 28 27 26 26 25 25 25 24 24 24 24 23 23 23 23 23 23 22 22 23 23 23 22 22 21 21 20 20 20 20 20 20 20 19 19
25 25 26 26 27 27 27 27 27 27 27 27 27 26 25 25 25 24 24 23 23 23 23 23 23 23 23 22 23 23 23 23 22 22 21 21 20 20 20 20 20 20 20 19
24 25 25 25 25 25 26 26 27 27 27 27 27 26 26 25 25 24 24 23 23 23 23 23 23 22 23 23 23 23 23 23 22 22 22 22 22 21 20 20 19 19 19 18
23 24 24 24 25 25 25 25 25 25 25 26 26 26 26 25 25 24 25 24 23 23 23 23 23 23 23 23 23 23 24 23 22 21 21 21 21 20 19 19 18 18 17 16
21 22 23 24 24 24 24 24 25 25 25 25 25 25 25 25 24 24 24 24 24 24 24 24 24 24 23 23 23 22 22 22 21 20 20 20 20 19 18 18 18 18 17 17
20 21 21 22 22 23 23 22 23 23 24 24 24 25 25 25 25 25 26 26 26 25 25 25 25 24 23 22 22 22 21 21 21 20 20 20 20 19 19 19 19 19 18 18
20 20 20 19 19 19 20 20 21 22 23 23 24 24 25 25 25 25 25 25 25 25 24 24 24 24 23 23 23 23 23 23 23 22 22 21 20 20 19 19 19 19 19 19
18 18 17 17 17 18 17 18 19 20 21 21 22 23 23 24 24 24 24 24 24 24 24 24 24 24 24 24 24 24 24 24 24 23 23 22 22 22 21 21 20 19 18 18
17 17 18 17 16 16 16 17 18 18 19 19 20 21 22 22 22 22 23 23 23 23 23 23 22 23 24 24 24 24 24 24 24 24 23 23 23 22 21 21 20 19 18 18
Wind_Direction
252 252 253 255 258 259 262 266 268 268 271 274 273 276 278 280 282 279 280 282 286 290 295 299 298 300 303 305 305 307 308 310 313 317 319 318 319 320 319 320 322 323 324 324
252 254 253 253 255 258 262 265 267 269 270 271 273 275 276 276 278 278 278 280 285 288 291 297 300 299 303 306 305 304 305 307 311 313 317 320 324 326 321 320 322 325 325 325
253 252 254 255 257 259 262 265 267 268 269 270 271 273 273 273 276 278 276 277 280 285 290 292 292 297 300 301 302 303 302 303 306 310 314 318 322 323 321 321 323 326 327 325
255 256 257 259 262 265 265 265 264 264 265 266 268 269 269 270 274 276 274 275 276 279 284 286 289 291 294 295 299 300 299 300 303 305 310 315 317 319 320 322 326 329 329 327
258 260 262 262 266 268 267 265 264 264 264 264 265 266 267 268 270 273 273 273 273 275 277 279 282 284 286 291 296 298 297 297 300 302 307 312 313 315 316 320 324 329 332 331
258 260 262 264 265 267 266 266 266 265 264 263 264 266 268 268 268 269 270 272 273 272 274 276 278 280 280 283 290 294 295 294 297 299 302 306 308 311 313 317 320 324 328 329
257 260 262 264 265 265 265 267 266 265 263 264 265 265 267 268 269 268 271 273 273 273 271 272 274 276 277 278 282 287 291 290 293 296 297 301 304 307 311 317 320 323 326 327
258 260 261 264 265 265 266 265 265 265 265 264 265 264 265 267 268 269 269 271 272 271 270 270 272 273 274 276 278 282 286 290 292 293 294 294 297 302 307 312 316 318 323 326
258 259 260 263 265 265 265 265 265 265 265 263 263 265 266 268 267 267 268 269 269 269 269 270 270 272 274 276 278 278 282 286 289 291 292 293 296 298 302 307 309 313 317 321
259 258 259 261 262 263 264 265 266 267 264 263 262 262 265 267 267 266 266 267 268 267 267 267 269 272 273 275 274 275 279 284 287 288 289 292 293 296 299 302 305 308 311 314
259 259 260 260 263 264 266 265 264 265 263 262 261 262 264 265 265 266 267 266 267 267 267 266 268 272 273 273 275 275 275 277 281 283 284 286 290 292 294 297 301 304 307 309
259 258 259 261 262 265 265 264 264 265 264 264 265 264 266 269 269 268 270 270 268 269 270 270 270 270 272 273 273 273 274 276 280 280 280 283 286 288 290 293 296 299 302 305
259 258 259 260 261 263 263 262 261 262 263 265 266 266 268 270 269 270 272 271 271 270 269 269 271 273 274 273 270 271 272 274 275 278 279 281 283 284 286 288 292 294 298 303
259 258 258 259 259 261 263 264 263 263 264 264 263 266 267 267 269 269 270 270 270 268 267 268 269 271 272 272 271 271 272 273 276 279 281 280 281 281 282 285 288 289 292 296
258 257 257 257 257 259 262 263 263 263 263 264 265 265 266 266 268 269 269 269 269 268 267 268 268 267 267 269 269 270 271 272 274 275 277 278 279 280 280 281 283 284 287 290
255 256 256 256 256 259 261 263 263 263 265 266 265 266 265 266 268 269 268 267 267 268 268 268 268 267 266 267 268 268 269 269 269 272 274 276 277 279 278 277 278 280 282 283
256 256 255 255 257 259 260 261 261 262 264 264 264 264 265 266 268 268 267 268 267 266 266 266 267 269 269 270 270 269 267 267 268 269 270 272 274 276 276 275 274 276 277 278
256 257 257 255 257 258 259 261 261 262 262 262 261 262 264 265 267 267 267 266 265 265 266 268 269 271 270 269 268 268 268 267 268 268 267 269 272 274 274 273 272 272 273 274
258 258 258 258 259 259 261 263 263 263 262 261 262 262 262 263 265 267 265 263 262 261 263 266 268 269 269 269 267 267 268 269 267 266 266 266 268 269 270 271 271 271 271 272
258 259 260 260 261 261 261 261 261 261 262 263 263 262 263 262 263 264 263 261 260 260 263 267 269 270 269 269 269 269 269 270 270 268 267 265 264 266 268 270 270 270 269 270
259 260 261 262 262 261 263 263 261 260 261 262 261 261 261 262 262 262 260 259 261 262 264 268 270 270 270 269 269 270 270 271 270 268 265 264 263 263 265 267 269 269 269 268
261 261 262 264 264 264 264 263 262 260 259 258 258 259 260 261 261 261 260 260 261 262 264 268 269 269 269 269 269 270 270 270 269 266 264 263 262 261 261 263 267 268 266 265
264 263 263 265 263 263 263 262 261 259 257 255 257 259 260 261 262 262 260 260 261 262 264 267 269 270 270 271 270 268 266 265 264 263 262 262 262 260 259 259 260 264 263 263
266 267 268 268 266 266 266 263 262 261 258 257 256 257 258 259 261 263 262 261 261 262 263 266 267 268 267 266 266 266 264 262 261 261 261 261 261 260 258 258 259 262 262 262
269 271 272 271 271 270 268 266 263 261 259 259 258 257 258 259 259 260 261 262 261 261 262 263 264 265 264 265 266 267 267 266 263 260 259 258 259 259 258 259 261 263 263 262
268 269 272 273 272 272 273 270 268 266 265 263 261 260 259 260 261 261 261 261 260 260 263 264 264 264 264 265 266 267 266 265 263 259 257 256 256 256 257 258 260 261 262 260
268 268 271 273 272 271 273 274 272 268 265 264 264 263 262 262 263 263 264 263 262 262 264 264 264 265 266 266 266 265 265 264 263 259 255 253 253 254 255 255 256 259 261 261
Height
5788 5789 5790 5791 5792 5793 5794 5795 5796 5797 5797 5798 5798 5797 5797 5797 5796 5796 5795 5794 5792 5791 5789 5787 5785 5784 5782 5780 5778 5776 5775 5773 5771 5769 5767 5764 5762 5759 5756 5754 5751 5748 5745 5742
5782 5783 5784 5785 5787 5788 5789 5789 5790 5791 5792 5792 5792 5792 5791 5791 5791 5791 5790 5789 5788 5787 5785 5783 5782 5780 5778 5776 5775 5773 5772 5770 5769 5767 5764 5762 5759 5756 5754 5751 5748 5745 5742 5739
5776 5777 5778 5779 5781 5782 5783 5783 5784 5785 5787 5786 5786 5786 5786 5785 5786 5785 5785 5784 5783 5782 5781 5779 5778 5776 5775 5773 5772 5770 5769 5767 5766 5764 5762 5759 5756 5754 5751 5748 5745 5742 5739 5736
5769 5772 5772 5776 5775 5776 5776 5777 5778 5778 5779 5780 5780 5780 5780 5780 5780 5780 5780 5779 5778 5777 5776 5775 5774 5772 5771 5770 5769 5767 5766 5764 5763 5761 5758 5756 5754 5751 5748 5745 5743 5739 5736 5733
5763 5764 5765 5768 5768 5768 5769 5770 5771 5772 5772 5773 5773 5773 5774 5774 5774 5774 5774 5774 5773 5772 5771 5770 5769 5768 5767 5766 5765 5764 5762 5761 5759 5757 5755 5753 5750 5748 5746 5743 5740 5737 5734 5731
5756 5757 5759 5761 5761 5761 5763 5763 5764 5764 5765 5766 5766 5767 5768 5767 5767 5767 5767 5767 5767 5767 5766 5765 5764 5763 5762 5762 5761 5760 5758 5757 5755 5753 5751 5749 5747 5745 5742 5739 5737 5734 5731 5728
5749 5750 5751 5753 5753 5754 5756 5758 5757 5757 5758 5758 5759 5760 5760 5760 5760 5760 5760 5760 5760 5760 5760 5760 5759 5758 5757 5756 5755 5755 5753 5752 5750 5749 5747 5745 5743 5741 5738 5736 5734 5731 5728 5725
5742 5743 5747 5746 5746 5748 5748 5748 5749 5749 5750 5750 5751 5751 5752 5752 5752 5753 5753 5754 5754 5754 5754 5753 5753 5752 5752 5751 5750 5749 5748 5747 5745 5744 5742 5740 5739 5737 5735 5732 5730 5728 5726 5723
5735 5738 5738 5739 5739 5740 5740 5741 5741 5742 5742 5742 5743 5744 5744 5744 5745 5745 5746 5746 5746 5747 5747 5747 5746 5746 5745 5745 5744 5743 5742 5741 5740 5739 5737 5736 5734 5733 5731 5729 5727 5725 5723 5720
5727 5728 5730 5731 5732 5732 5732 5733 5733 5733 5734 5735 5735 5736 5736 5736 5737 5737 5738 5738 5739 5739 5739 5740 5739 5739 5738 5738 5737 5737 5736 5735 5734 5733 5732 5731 5730 5728 5727 5725 5723 5721 5719 5717
5719 5720 5722 5723 5724 5724 5724 5725 5725 5725 5726 5726 5727 5727 5728 5728 5729 5729 5730 5730 5731 5731 5731 5732 5731 5731 5731 5731 5731 5730 5730 5728 5728 5727 5726 5726 5724 5723 5722 5721 5719 5717 5715 5713
5711 5712 5713 5715 5715 5716 5716 5716 5717 5717 5718 5718 5718 5719 5720 5720 5721 5721 5722 5722 5722 5723 5723 5723 5724 5724 5724 5724 5723 5723 5723 5723 5722 5721 5720 5720 5719 5718 5717 5716 5715 5713 5711 5709
5703 5704 5705 5706 5707 5708 5708 5708 5709 5709 5710 5710 5711 5712 5712 5713 5713 5714 5714 5715 5715 5715 5716 5716 5716 5716 5716 5716 5716 5716 5716 5716 5716 5715 5714 5714 5713 5713 5712 5711 5709 5708 5707 5705
5694 5695 5697 5697 5699 5700 5700 5700 5701 5702 5702 5702 5703 5704 5705 5705 5706 5706 5707 5707 5708 5708 5708 5708 5709 5709 5709 5709 5709 5709 5709 5709 5709 5709 5709 5708 5708 5707 5706 5706 5705 5704 5702 5701
5686 5687 5689 5689 5690 5691 5692 5692 5693 5694 5694 5695 5695 5696 5697 5697 5698 5699 5699 5699 5700 5700 5701 5701 5701 5701 5701 5701 5702 5702 5702 5702 5702 5702 5702 5702 5701 5701 5701 5700 5699 5699 5698 5696
5678 5679 5680 5681 5682 5683 5684 5685 5685 5686 5686 5687 5687 5688 5689 5689 5690 5691 5691 5691 5692 5693 5693 5693 5693 5693 5693 5694 5694 5694 5695 5695 5695 5695 5695 5695 5695 5694 5694 5694 5693 5693 5692 5691
5670 5671 5672 5673 5674 5675 5676 5677 5677 5678 5678 5679 5680 5680 5681 5682 5682 5683 5683 5683 5684 5685 5685 5685 5686 5686 5686 5686 5687 5687 5687 5688 5688 5688 5688 5688 5688 5687 5687 5687 5687 5687 5686 5686
5662 5663 5664 5665 5666 5667 5668 5668 5669 5670 5670 5671 5672 5673 5673 5674 5675 5675 5675 5676 5676 5677 5677 5678 5678 5678 5678 5678 5678 5679 5679 5679 5680 5680 5680 5680 5680 5681 5681 5680 5680 5680 5680 5680
5654 5655 5656 5657 5658 5659 5659 5660 5661 5661 5662 5663 5663 5664 5665 5666 5666 5667 5667 5668 5669 5670 5670 5670 5671 5671 5671 5670 5670 5671 5671 5671 5672 5672 5672 5673 5673 5673 5673 5673 5673 5673 5674 5674
5647 5648 5648 5649 5650 5650 5651 5651 5652 5653 5653 5654 5655 5656 5657 5658 5658 5659 5659 5660 5661 5662 5662 5663 5663 5663 5663 5663 5663 5663 5663 5663 5663 5664 5665 5665 5666 5666 5666 5667 5667 5667 5667 5667
5639 5640 5641 5641 5642 5642 5642 5643 5643 5644 5645 5645 5646 5648 5649 5650 5650 5651 5652 5653 5653 5654 5654 5654 5655 5655 5655 5655 5655 5655 5655 5655 5655 5656 5656 5657 5658 5659 5660 5660 5660 5660 5661 5661
5632 5633 5633 5633 5633 5634 5634 5634 5635 5635 5636 5637 5638 5639 5640 5641 5642 5643 5643 5645 5645 5646 5646 5646 5646 5646 5646 5647 5647 5647 5647 5647 5647 5648 5649 5650 5651 5652 5653 5653 5654 5654 5654 5655
5625 5625 5625 5625 5625 5625 5626 5626 5626 5627 5628 5629 5630 5631 5632 5633 5633 5634 5636 5636 5637 5637 5638 5638 5638 5639 5639 5639 5639 5639 5639 5640 5640 5641 5642 5643 5644 5644 5646 5647 5648 5648 5649 5649
5617 5617 5617 5617 5617 5617 5618 5618 5618 5619 5620 5621 5622 5622 5623 5624 5625 5626 5626 5627 5628 5629 5629 5630 5630 5631 5631 5631 5632 5632 5632 5633 5633 5634 5635 5636 5637 5638 5639 5640 5641 5642 5643 5644
5610 5610 5610 5610 5610 5610 5610 5610 5610 5611 5612 5612 5613 5614 5615 5616 5617 5618 5618 5619 5619 5620 5621 5622 5622 5623 5623 5624 5624 5625 5625 5626 5626 5627 5628 5629 5630 5631 5632 5634 5635 5636 5637 5638
5604 5604 5604 5604 5604 5603 5603 5603 5603 5603 5604 5604 5605 5606 5606 5607 5608 5609 5610 5610 5611 5612 5613 5613 5614 5615 5615 5616 5616 5617 5617 5618 5618 5619 5620 5622 5623 5625 5626 5627 5628 5630 5631 5632
5598 5598 5598 5598 5597 5597 5597 5597 5597 5597 5597 5597 5597 5598 5598 5599 5600 5601 5602 5602 5603 5604 5605 5605 5606 5607 5607 5608 5608 5609 5609 5610 5611 5612 5613 5614 5616 5617 5619 5620 5622 5623 5624 5625